Millington, TN

9:02 PM CST on February 13, 2016 (GMT -0600)
Millington Municipal

Weather History for KNQA - February, 2014

Change the Weather History Date:

Saturday, February 22, 2014

  Actual Average Record
Temperature  
Mean Temperature 52 °F -  
Max Temperature 69 °F 53 °F 69 °F (2014)
Min Temperature 35 °F 37 °F 27 °F (2002)
Degree Days  
Heating Degree Days 13    
Growing Degree Days 2 (Base 50)    
Moisture  
Dew Point 29 °F    
Average Humidity 50    
Maximum Humidity 75    
Minimum Humidity 21    
Precipitation  
Precipitation 0.00 in - - ()
Sea Level Pressure  
Sea Level Pressure 30.06 in    
Wind  
Wind Speed 2 mph (South)    
Max Wind Speed 12 mph    
Max Gust Speed -    
Visibility 10 miles    
Events      
Averages and records for this station are not official NWS values.
T = Trace of Precipitation, MM = Missing Value Source: NWS Daily Summary

Daily Weather History Graph

Daily Weather History Graph

Search for Another Location

Airport or City:

Trip Planner

Search our weather history database for the weather conditions in past years. The results will help you decide how hot, cold, wet, or windy it might be!

Date:

Astronomy

Feb. 22, 2014 Rise Set
Actual Time 6:37 AM CST 5:48 PM CST
Civil Twilight 6:12 AM CST 6:14 PM CST
Nautical Twilight 5:42 AM CST 6:43 PM CST
Astronomical Twilight 5:13 AM CST 7:13 PM CST
Moon 12:28 AM CST (2/22) 11:04 AM CST (2/22)
Length of Visible Light 12h 02m
Length of Day
11h 10m
Waning Gibbous, 50% of the Moon is Illuminated
Feb 22
Waning Gibbous
Mar 1
New
Mar 8
First Quarter
Mar 16
Full
Mar 23
Last Quarter

Hourly Weather History & Observations

Time (CST) Temp. Windchill Dew Point Humidity Pressure Visibility Wind Dir Wind Speed Gust Speed Precip Events Conditions
12:50 AM 42.8 °F - 26.6 °F 53% 30.11 in 10.0 mi Calm Calm - N/A   Clear
1:50 AM 42.8 °F - 28.4 °F 57% 30.11 in 10.0 mi Calm Calm - N/A   Clear
2:15 AM 41.0 °F - 28.4 °F 61% 30.11 in 10.0 mi Calm Calm - N/A   Clear
2:35 AM 39.2 °F 37.0 °F 28.4 °F 65% 30.11 in 10.0 mi ESE 3.5 mph - N/A   Clear
2:55 AM 37.4 °F - 28.4 °F 70% 30.10 in 10.0 mi Calm Calm - N/A   Clear
3:15 AM 37.4 °F - 28.4 °F 70% 30.10 in 10.0 mi Calm Calm - N/A   Clear
3:35 AM 37.4 °F - 28.4 °F 70% 30.09 in 10.0 mi Calm Calm - N/A   Clear
3:55 AM 37.4 °F - 28.4 °F 70% 30.09 in 10.0 mi Calm Calm - N/A   Clear
4:15 AM 39.2 °F - 28.4 °F 65% 30.09 in 10.0 mi Calm Calm - N/A   Clear
4:35 AM 39.2 °F - 28.4 °F 65% 30.09 in 10.0 mi Calm Calm - N/A   Clear
4:55 AM 37.4 °F - 28.4 °F 70% 30.09 in 10.0 mi Calm Calm - N/A   Clear
5:30 AM 35.6 °F 32.8 °F 28.4 °F 75% 30.09 in 10.0 mi ESE 3.5 mph - N/A   Scattered Clouds
5:55 AM 37.4 °F - 26.6 °F 65% 30.09 in 10.0 mi Calm Calm - N/A   Scattered Clouds
7:55 AM 42.8 °F - 32.0 °F 66% 30.09 in 10.0 mi Calm Calm - N/A   Partly Cloudy
8:55 AM 51.8 °F - 32.0 °F 47% 30.10 in 10.0 mi Calm Calm - N/A   Partly Cloudy
9:55 AM 59.0 °F - 30.2 °F 34% 30.10 in 10.0 mi SSW 5.8 mph - N/A   Partly Cloudy
10:55 AM 64.4 °F - 28.4 °F 26% 30.08 in 10.0 mi Variable 4.6 mph - N/A   Partly Cloudy
11:55 AM 66.2 °F - 26.6 °F 23% 30.06 in 10.0 mi SSW 9.2 mph - N/A   Partly Cloudy
12:55 PM 66.2 °F - 24.8 °F 21% 30.02 in 10.0 mi SSW 8.1 mph - N/A   Partly Cloudy
1:50 PM 68.0 °F - 26.6 °F 21% 29.98 in 10.0 mi SSE 11.5 mph - N/A   Partly Cloudy
2:50 PM 69.8 °F - 30.2 °F 23% 29.97 in 10.0 mi SW 11.5 mph - N/A   Partly Cloudy
3:50 PM 69.8 °F - 33.8 °F 27% 29.96 in 10.0 mi SW 11.5 mph - N/A   Partly Cloudy
4:50 PM 66.2 °F - 35.6 °F 32% 29.95 in 10.0 mi SW 9.2 mph - N/A   Partly Cloudy
5:50 PM 62.6 °F - 30.2 °F 30% 29.94 in 10.0 mi South 5.8 mph - N/A   Scattered Clouds
6:50 PM 60.8 °F - 32.0 °F 34% 29.94 in 10.0 mi South 4.6 mph - N/A   Scattered Clouds